Time,TemperatureF,DewpointF,PressureIn,WindDirection,WindDirectionDegrees,WindSpeedMPH,WindSpeedGustMPH,Humidity,HourlyPrecipIn,Conditions,Clouds,dailyrainin,SoftwareType,DateUTC
2013-02-26 00:00:00,18.4,9.6,30.28,East,79,0.0,0.0,68,0.00,,,0.00,LWC V2.10 B1813,2013-02-26 09:00:00,
2013-02-26 00:05:00,18.4,9.6,30.28,East,79,0.0,0.0,68,0.00,,,0.00,LWC V2.10 B1813,2013-02-26 09:05:00,
2013-02-26 00:10:00,18.4,9.6,30.28,East,79,0.0,0.0,68,0.00,,,0.00,LWC V2.10 B1813,2013-02-26 09:10:00,
2013-02-26 00:15:00,18.2,9.4,30.28,East,79,0.0,0.0,68,0.00,,,0.00,LWC V2.10 B1813,2013-02-26 09:15:00,
2013-02-26 00:20:00,18.2,9.4,30.28,East,80,1.0,2.0,68,0.00,,,0.00,LWC V2.10 B1813,2013-02-26 09:20:00,
2013-02-26 00:25:00,18.0,9.2,30.28,East,79,2.0,2.0,68,0.00,,,0.00,LWC V2.10 B1813,2013-02-26 09:25:00,
2013-02-26 00:30:00,17.7,9.3,30.28,NE,51,1.0,2.0,69,0.00,,,0.00,LWC V2.10 B1813,2013-02-26 09:30:00,
2013-02-26 00:35:00,17.4,9.3,30.28,NE,51,1.0,1.0,70,0.00,,,0.00,LWC V2.10 B1813,2013-02-26 09:35:00,
2013-02-26 00:40:00,17.3,9.2,30.28,NE,51,0.0,1.0,70,0.00,,,0.00,LWC V2.10 B1813,2013-02-26 09:40:00,
2013-02-26 00:45:00,17.4,9.0,30.28,NE,51,0.0,2.0,69,0.00,,,0.00,LWC V2.10 B1813,2013-02-26 09:45:00,
2013-02-26 00:50:00,17.5,9.1,30.28,NE,51,0.0,0.0,69,0.00,,,0.00,LWC V2.10 B1813,2013-02-26 09:50:00,
2013-02-26 00:55:00,17.5,9.1,30.28,NE,50,0.0,0.0,69,0.00,,,0.00,LWC V2.10 B1813,2013-02-26 09:55:00,
2013-02-26 01:00:00,17.3,8.6,30.28,NE,51,0.0,0.0,68,0.00,,,0.00,LWC V2.10 B1813,2013-02-26 10:00:00,
2013-02-26 01:05:00,17.3,8.6,30.28,NE,51,1.0,2.0,68,0.00,,,0.00,LWC V2.10 B1813,2013-02-26 10:05:00,
2013-02-26 01:10:00,17.4,8.3,30.28,ENE,68,3.0,3.0,67,0.00,,,0.00,LWC V2.10 B1813,2013-02-26 10:10:00,
2013-02-26 01:15:00,17.5,8.8,30.27,ENE,68,0.0,2.0,68,0.00,,,0.00,LWC V2.10 B1813,2013-02-26 10:15:00,
2013-02-26 01:20:00,17.4,8.7,30.27,ENE,74,0.0,2.0,68,0.00,,,0.00,LWC V2.10 B1813,2013-02-26 10:20:00,
2013-02-26 01:25:00,17.3,8.6,30.27,ENE,74,0.0,0.0,68,0.00,,,0.00,LWC V2.10 B1813,2013-02-26 10:25:00,
2013-02-26 01:30:00,17.2,8.5,30.27,ENE,74,0.0,0.0,68,0.00,,,0.00,LWC V2.10 B1813,2013-02-26 10:30:00,
2013-02-26 01:35:00,17.0,8.3,30.27,ENE,74,2.0,2.0,68,0.00,,,0.00,LWC V2.10 B1813,2013-02-26 10:35:00,
2013-02-26 01:40:00,16.9,8.2,30.27,ENE,74,0.0,0.0,68,0.00,,,0.00,LWC V2.10 B1813,2013-02-26 10:40:00,
2013-02-26 01:45:00,16.7,8.3,30.28,ENE,74,0.0,0.0,69,0.00,,,0.00,LWC V2.10 B1813,2013-02-26 10:45:00,
2013-02-26 01:50:00,16.4,8.0,30.28,ENE,74,0.0,0.0,69,0.00,,,0.00,LWC V2.10 B1813,2013-02-26 10:50:00,
2013-02-26 01:55:00,16.3,8.3,30.28,ENE,74,0.0,0.0,70,0.00,,,0.00,LWC V2.10 B1813,2013-02-26 10:55:00,
2013-02-26 02:00:00,16.2,8.2,30.28,ENE,74,2.0,2.0,70,0.00,,,0.00,LWC V2.10 B1813,2013-02-26 11:00:00,
2013-02-26 02:05:00,16.2,8.2,30.27,ENE,74,2.0,3.0,70,0.00,,,0.00,LWC V2.10 B1813,2013-02-26 11:05:00,
2013-02-26 02:10:00,16.4,8.0,30.27,ENE,78,2.0,4.0,69,0.00,,,0.00,LWC V2.10 B1813,2013-02-26 11:10:00,
2013-02-26 02:15:00,16.9,8.2,30.27,ENE,78,4.0,5.0,68,0.00,,,0.00,LWC V2.10 B1813,2013-02-26 11:15:00,
2013-02-26 02:20:00,17.7,8.3,30.27,ENE,69,3.0,5.0,66,0.00,,,0.00,LWC V2.10 B1813,2013-02-26 11:20:00,
2013-02-26 02:25:00,18.2,8.8,30.27,NE,56,3.0,4.0,66,0.00,,,0.00,LWC V2.10 B1813,2013-02-26 11:25:00,
2013-02-26 02:30:00,18.4,9.0,30.27,NE,45,0.0,2.0,66,0.00,,,0.00,LWC V2.10 B1813,2013-02-26 11:30:00,
2013-02-26 02:35:00,18.4,8.6,30.27,NE,45,1.0,2.0,65,0.00,,,0.00,LWC V2.10 B1813,2013-02-26 11:35:00,
2013-02-26 02:40:00,18.2,8.8,30.27,NE,46,0.0,1.0,66,0.00,,,0.00,LWC V2.10 B1813,2013-02-26 11:40:00,
2013-02-26 02:45:00,18.1,8.3,30.27,NE,53,1.0,3.0,65,0.00,,,0.00,LWC V2.10 B1813,2013-02-26 11:45:00,
2013-02-26 02:50:00,17.7,8.0,30.27,ENE,69,2.0,4.0,65,0.00,,,0.00,LWC V2.10 B1813,2013-02-26 11:50:00,
2013-02-26 02:55:00,17.5,8.1,30.27,ENE,59,2.0,4.0,66,0.00,,,0.00,LWC V2.10 B1813,2013-02-26 11:55:00,
2013-02-26 03:00:00,17.6,8.2,30.27,NE,40,3.0,5.0,66,0.00,,,0.00,LWC V2.10 B1813,2013-02-26 12:00:00,
2013-02-26 03:05:00,18.0,7.9,30.27,NE,42,2.0,3.0,64,0.00,,,0.00,LWC V2.10 B1813,2013-02-26 12:05:00,
2013-02-26 03:10:00,18.2,8.1,30.26,NE,55,2.0,3.0,64,0.00,,,0.00,LWC V2.10 B1813,2013-02-26 12:10:00,
2013-02-26 03:15:00,18.3,8.2,30.26,NE,54,2.0,3.0,64,0.00,,,0.00,LWC V2.10 B1813,2013-02-26 12:15:00,
2013-02-26 03:20:00,18.2,8.1,30.26,NE,56,4.0,4.0,64,0.00,,,0.00,LWC V2.10 B1813,2013-02-26 12:20:00,
2013-02-26 03:25:00,18.1,8.0,30.26,NE,53,5.0,5.0,64,0.00,,,0.00,LWC V2.10 B1813,2013-02-26 12:25:00,
2013-02-26 03:30:00,18.5,8.4,30.26,NE,53,4.0,5.0,64,0.00,,,0.00,LWC V2.10 B1813,2013-02-26 12:30:00,
2013-02-26 03:35:00,19.4,8.5,30.26,ENE,58,3.0,5.0,62,0.00,,,0.00,LWC V2.10 B1813,2013-02-26 12:35:00,
2013-02-26 03:40:00,19.9,8.6,30.26,ENE,59,2.0,4.0,61,0.00,,,0.00,LWC V2.10 B1813,2013-02-26 12:40:00,
2013-02-26 03:45:00,20.2,8.6,30.26,NE,56,3.0,4.0,60,0.00,,,0.00,LWC V2.10 B1813,2013-02-26 12:45:00,
2013-02-26 03:50:00,20.6,8.6,30.26,East,81,3.0,5.0,59,0.00,,,0.00,LWC V2.10 B1813,2013-02-26 12:50:00,
2013-02-26 03:55:00,20.4,8.4,30.26,ENE,76,3.0,3.0,59,0.00,,,0.00,LWC V2.10 B1813,2013-02-26 12:55:00,
2013-02-26 04:00:00,19.7,8.1,30.25,NE,55,3.0,3.0,60,0.00,,,0.00,LWC V2.10 B1813,2013-02-26 13:00:00,
2013-02-26 04:05:00,19.4,8.2,30.25,NE,46,4.0,4.0,61,0.00,,,0.00,LWC V2.10 B1813,2013-02-26 13:05:00,
2013-02-26 04:10:00,19.4,8.2,30.25,NE,51,2.0,4.0,61,0.00,,,0.00,LWC V2.10 B1813,2013-02-26 13:10:00,
2013-02-26 04:15:00,19.6,8.4,30.25,NE,51,2.0,3.0,61,0.00,,,0.00,LWC V2.10 B1813,2013-02-26 13:15:00,
2013-02-26 04:20:00,19.7,8.1,30.25,NE,52,4.0,4.0,60,0.00,,,0.00,LWC V2.10 B1813,2013-02-26 13:20:00,
2013-02-26 04:25:00,19.7,7.7,30.25,NE,55,4.0,5.0,59,0.00,,,0.00,LWC V2.10 B1813,2013-02-26 13:25:00,
2013-02-26 04:30:00,20.3,8.3,30.25,NE,51,2.0,5.0,59,0.00,,,0.00,LWC V2.10 B1813,2013-02-26 13:30:00,
2013-02-26 04:35:00,20.7,8.3,30.25,NE,47,4.0,5.0,58,0.00,,,0.00,LWC V2.10 B1813,2013-02-26 13:35:00,
2013-02-26 04:40:00,21.1,8.3,30.24,ENE,57,2.0,5.0,57,0.00,,,0.00,LWC V2.10 B1813,2013-02-26 13:40:00,
2013-02-26 04:45:00,21.3,8.1,30.25,NE,52,3.0,4.0,56,0.00,,,0.00,LWC V2.10 B1813,2013-02-26 13:45:00,
2013-02-26 04:50:00,21.4,8.2,30.24,NE,50,2.0,6.0,56,0.00,,,0.00,LWC V2.10 B1813,2013-02-26 13:50:00,
2013-02-26 04:55:00,21.4,8.2,30.24,NE,53,3.0,4.0,56,0.00,,,0.00,LWC V2.10 B1813,2013-02-26 13:55:00,
2013-02-26 05:00:00,21.2,8.0,30.24,NE,48,2.0,5.0,56,0.00,,,0.00,LWC V2.10 B1813,2013-02-26 14:00:00,
2013-02-26 05:05:00,20.9,8.1,30.24,NE,48,3.0,3.0,57,0.00,,,0.00,LWC V2.10 B1813,2013-02-26 14:05:00,
2013-02-26 05:10:00,20.6,7.8,30.24,NE,48,1.0,3.0,57,0.00,,,0.00,LWC V2.10 B1813,2013-02-26 14:10:00,
2013-02-26 05:15:00,20.0,6.9,30.24,NE,49,2.0,3.0,56,0.00,,,0.00,LWC V2.10 B1813,2013-02-26 14:15:00,
2013-02-26 05:20:00,19.7,7.3,30.23,NE,43,2.0,6.0,58,0.00,,,0.00,LWC V2.10 B1813,2013-02-26 14:20:00,
2013-02-26 05:25:00,19.6,7.3,30.23,NE,44,4.0,5.0,58,0.00,,,0.00,LWC V2.10 B1813,2013-02-26 14:25:00,
2013-02-26 05:30:00,19.7,7.0,30.23,NE,38,2.0,3.0,57,0.00,,,0.00,LWC V2.10 B1813,2013-02-26 14:30:00,
2013-02-26 05:35:00,19.8,7.1,30.23,NE,44,3.0,3.0,57,0.00,,,0.00,LWC V2.10 B1813,2013-02-26 14:35:00,
2013-02-26 05:40:00,19.8,7.1,30.23,NE,42,3.0,5.0,57,0.00,,,0.00,LWC V2.10 B1813,2013-02-26 14:40:00,
2013-02-26 05:45:00,19.7,7.0,30.22,NE,40,2.0,5.0,57,0.00,,,0.00,LWC V2.10 B1813,2013-02-26 14:45:00,
2013-02-26 05:50:00,19.7,7.0,30.22,NE,41,4.0,5.0,57,0.00,,,0.00,LWC V2.10 B1813,2013-02-26 14:50:00,
2013-02-26 05:55:00,19.9,7.2,30.22,NNE,29,1.0,3.0,57,0.00,,,0.00,LWC V2.10 B1813,2013-02-26 14:55:00,
2013-02-26 06:00:00,20.0,6.9,30.22,NE,46,2.0,4.0,56,0.00,,,0.00,LWC V2.10 B1813,2013-02-26 15:00:00,
2013-02-26 06:05:00,20.2,7.0,30.22,NE,46,2.0,3.0,56,0.00,,,0.00,LWC V2.10 B1813,2013-02-26 15:05:00,
2013-02-26 06:10:00,20.5,6.9,30.22,NE,49,3.0,4.0,55,0.00,,,0.00,LWC V2.10 B1813,2013-02-26 15:10:00,
2013-02-26 06:15:00,20.5,6.9,30.22,NE,49,2.0,5.0,55,0.00,,,0.00,LWC V2.10 B1813,2013-02-26 15:15:00,
2013-02-26 06:20:00,20.5,6.9,30.21,NE,52,4.0,5.0,55,0.00,,,0.00,LWC V2.10 B1813,2013-02-26 15:20:00,
2013-02-26 06:25:00,20.6,7.0,30.21,ENE,60,5.0,5.0,55,0.00,,,0.00,LWC V2.10 B1813,2013-02-26 15:25:00,
2013-02-26 06:30:00,20.1,6.6,30.21,ENE,69,3.0,5.0,55,0.00,,,0.00,LWC V2.10 B1813,2013-02-26 15:30:00,
2013-02-26 06:35:00,19.1,6.4,30.21,ENE,76,4.0,7.0,57,0.00,,,0.00,LWC V2.10 B1813,2013-02-26 15:35:00,
2013-02-26 06:40:00,18.1,5.8,30.21,ENE,67,4.0,7.0,58,0.00,,,0.00,LWC V2.10 B1813,2013-02-26 15:40:00,
2013-02-26 06:45:00,17.3,5.8,30.21,ENE,78,3.0,4.0,60,0.00,,,0.00,LWC V2.10 B1813,2013-02-26 15:45:00,
2013-02-26 06:50:00,16.9,5.8,30.21,ENE,76,2.0,3.0,61,0.00,,,0.00,LWC V2.10 B1813,2013-02-26 15:50:00,
2013-02-26 06:55:00,16.7,5.6,30.21,ENE,61,3.0,3.0,61,0.00,,,0.00,LWC V2.10 B1813,2013-02-26 15:55:00,
2013-02-26 07:00:00,16.5,5.4,30.20,ENE,60,3.0,4.0,61,0.00,,,0.00,LWC V2.10 B1813,2013-02-26 16:00:00,
2013-02-26 07:05:00,16.7,5.6,30.20,ENE,62,0.0,4.0,61,0.00,,,0.00,LWC V2.10 B1813,2013-02-26 16:05:00,
2013-02-26 07:10:00,16.8,5.7,30.20,ENE,63,3.0,4.0,61,0.00,,,0.00,LWC V2.10 B1813,2013-02-26 16:10:00,
2013-02-26 07:15:00,17.1,5.6,30.20,ENE,63,0.0,2.0,60,0.00,,,0.00,LWC V2.10 B1813,2013-02-26 16:15:00,
2013-02-26 07:20:00,17.1,5.3,30.20,ENE,67,2.0,4.0,59,0.00,,,0.00,LWC V2.10 B1813,2013-02-26 16:20:00,
2013-02-26 07:25:00,17.0,5.5,30.20,ENE,66,2.0,4.0,60,0.00,,,0.00,LWC V2.10 B1813,2013-02-26 16:25:00,
2013-02-26 07:30:00,16.8,5.4,30.19,ENE,59,3.0,5.0,60,0.00,,,0.00,LWC V2.10 B1813,2013-02-26 16:30:00,
2013-02-26 07:35:00,16.6,5.5,30.19,NE,44,0.0,1.0,61,0.00,,,0.00,LWC V2.10 B1813,2013-02-26 16:35:00,
2013-02-26 07:40:00,16.3,5.9,30.19,NNE,28,2.0,2.0,63,0.00,,,0.00,LWC V2.10 B1813,2013-02-26 16:40:00,
2013-02-26 07:45:00,15.8,5.5,30.18,NNE,26,0.0,1.0,63,0.00,,,0.00,LWC V2.10 B1813,2013-02-26 16:45:00,
2013-02-26 07:50:00,15.4,5.1,30.18,NNE,25,0.0,1.0,63,0.00,,,0.00,LWC V2.10 B1813,2013-02-26 16:50:00,
2013-02-26 07:55:00,15.3,5.0,30.18,NE,43,0.0,1.0,63,0.00,,,0.00,LWC V2.10 B1813,2013-02-26 16:55:00,
2013-02-26 08:00:00,15.0,4.4,30.18,ESE,107,1.0,4.0,62,0.00,,,0.00,LWC V2.10 B1813,2013-02-26 17:00:00,
2013-02-26 08:05:00,14.7,4.4,30.18,ESE,107,1.0,3.0,63,0.00,,,0.00,LWC V2.10 B1813,2013-02-26 17:05:00,
2013-02-26 08:10:00,14.3,4.4,30.18,NNE,29,0.0,1.0,64,0.00,,,0.00,LWC V2.10 B1813,2013-02-26 17:10:00,
2013-02-26 08:15:00,14.2,4.6,30.18,NE,55,5.0,5.0,65,0.00,,,0.00,LWC V2.10 B1813,2013-02-26 17:15:00,
2013-02-26 08:20:00,14.4,4.5,30.17,NE,35,3.0,4.0,64,0.00,,,0.00,LWC V2.10 B1813,2013-02-26 17:20:00,
2013-02-26 08:25:00,14.8,4.5,30.17,NNE,29,2.0,4.0,63,0.00,,,0.00,LWC V2.10 B1813,2013-02-26 17:25:00,
2013-02-26 08:30:00,15.0,4.7,30.17,NNE,18,0.0,0.0,63,0.00,,,0.00,LWC V2.10 B1813,2013-02-26 17:30:00,
2013-02-26 08:35:00,15.0,4.7,30.17,NE,45,3.0,4.0,63,0.00,,,0.00,LWC V2.10 B1813,2013-02-26 17:35:00,
2013-02-26 08:40:00,15.3,4.6,30.17,ENE,66,2.0,3.0,62,0.00,,,0.00,LWC V2.10 B1813,2013-02-26 17:40:00,
2013-02-26 08:45:00,15.4,4.7,30.17,ENE,59,4.0,5.0,62,0.00,,,0.00,LWC V2.10 B1813,2013-02-26 17:45:00,
2013-02-26 08:50:00,15.7,4.7,30.17,ENE,71,7.0,7.0,61,0.00,,,0.00,LWC V2.10 B1813,2013-02-26 17:50:00,
2013-02-26 08:52:00,15.8,5.1,30.17,ENE,59,3.0,4.0,62,0.00,,,0.00,LWC V2.10 B1813,2013-02-26 17:52:00,
2013-02-26 08:57:00,15.9,4.9,30.17,ENE,59,0.0,1.0,61,0.00,,,0.00,LWC V2.10 B1813,2013-02-26 17:57:00,
2013-02-26 09:02:00,16.1,5.1,30.17,NE,56,1.0,4.0,61,0.00,,,0.00,LWC V2.10 B1813,2013-02-26 18:02:00,
2013-02-26 09:07:00,16.2,5.1,30.17,ENE,59,0.0,2.0,61,0.00,,,0.00,LWC V2.10 B1813,2013-02-26 18:07:00,
2013-02-26 09:12:00,16.4,5.3,30.17,ENE,59,0.0,0.0,61,0.00,,,0.00,LWC V2.10 B1813,2013-02-26 18:12:00,
2013-02-26 09:17:00,16.7,6.0,30.17,ENE,59,0.0,0.0,62,0.00,,,0.00,LWC V2.10 B1813,2013-02-26 18:17:00,
2013-02-26 09:22:00,16.8,5.7,30.17,ENE,74,1.0,4.0,61,0.00,,,0.00,LWC V2.10 B1813,2013-02-26 18:22:00,
2013-02-26 09:27:00,17.0,5.5,30.16,ENE,74,1.0,1.0,60,0.00,,,0.00,LWC V2.10 B1813,2013-02-26 18:27:00,
2013-02-26 09:32:00,17.4,5.6,30.16,ENE,76,2.0,3.0,59,0.00,,,0.00,LWC V2.10 B1813,2013-02-26 18:32:00,
2013-02-26 09:37:00,18.1,5.5,30.16,ENE,78,3.0,3.0,57,0.00,,,0.00,LWC V2.10 B1813,2013-02-26 18:37:00,
2013-02-26 09:42:00,18.4,5.7,30.16,East,93,3.0,5.0,57,0.00,,,0.00,LWC V2.10 B1813,2013-02-26 18:42:00,
2013-02-26 09:47:00,18.1,5.8,30.16,East,86,3.0,5.0,58,0.00,,,0.00,LWC V2.10 B1813,2013-02-26 18:47:00,
2013-02-26 09:52:00,17.7,5.5,30.16,East,95,3.0,5.0,58,0.00,,,0.00,LWC V2.10 B1813,2013-02-26 18:52:00,
2013-02-26 09:57:00,17.4,5.6,30.16,ESE,117,2.0,4.0,59,0.00,,,0.00,LWC V2.10 B1813,2013-02-26 18:57:00,
2013-02-26 10:02:00,17.2,5.7,30.16,ESE,115,2.0,5.0,60,0.00,,,0.00,LWC V2.10 B1813,2013-02-26 19:02:00,
2013-02-26 10:07:00,17.3,5.8,30.16,ESE,114,2.0,3.0,60,0.00,,,0.00,LWC V2.10 B1813,2013-02-26 19:07:00,
2013-02-26 10:12:00,17.6,6.5,30.16,ESE,114,0.0,2.0,61,0.00,,,0.00,LWC V2.10 B1813,2013-02-26 19:12:00,
2013-02-26 10:17:00,17.7,6.6,30.16,ESE,113,0.0,2.0,61,0.00,,,0.00,LWC V2.10 B1813,2013-02-26 19:17:00,
2013-02-26 10:22:00,18.0,7.2,30.16,ESE,113,0.0,0.0,62,0.00,,,0.00,LWC V2.10 B1813,2013-02-26 19:22:00,
2013-02-26 10:27:00,18.5,8.0,30.16,ESE,113,0.0,2.0,63,0.00,,,0.00,LWC V2.10 B1813,2013-02-26 19:27:00,
2013-02-26 10:32:00,18.9,7.7,30.16,ESE,113,0.0,0.0,61,0.00,,,0.00,LWC V2.10 B1813,2013-02-26 19:32:00,
2013-02-26 10:37:00,19.3,8.4,30.15,ESE,113,0.0,0.0,62,0.00,,,0.00,LWC V2.10 B1813,2013-02-26 19:37:00,
2013-02-26 10:43:00,19.9,7.9,30.15,ESE,113,0.0,1.0,59,0.00,,,0.00,LWC V2.10 B1813,2013-02-26 19:43:00,
2013-02-26 10:48:00,20.6,9.3,30.15,ESE,113,3.0,3.0,61,0.00,,,0.00,LWC V2.10 B1813,2013-02-26 19:48:00,
2013-02-26 10:53:00,20.9,8.5,30.15,NNE,22,2.0,2.0,58,0.00,,,0.00,LWC V2.10 B1813,2013-02-26 19:53:00,
2013-02-26 10:58:00,21.2,9.1,30.15,NNE,23,0.0,2.0,59,0.00,,,0.00,LWC V2.10 B1813,2013-02-26 19:58:00,
2013-02-26 11:03:00,21.8,10.1,30.15,North,355,1.0,2.0,60,0.00,,,0.00,LWC V2.10 B1813,2013-02-26 20:03:00,
2013-02-26 11:08:00,22.3,9.8,30.15,NW,319,0.0,2.0,58,0.00,,,0.00,LWC V2.10 B1813,2013-02-26 20:08:00,
2013-02-26 11:13:00,22.4,9.9,30.14,WNW,286,0.0,3.0,58,0.00,,,0.00,LWC V2.10 B1813,2013-02-26 20:13:00,
2013-02-26 11:18:00,21.9,8.2,30.14,WNW,286,1.0,3.0,55,0.00,,,0.00,LWC V2.10 B1813,2013-02-26 20:18:00,
2013-02-26 11:23:00,21.7,9.2,30.14,WNW,284,2.0,2.0,58,0.00,,,0.00,LWC V2.10 B1813,2013-02-26 20:23:00,
2013-02-26 11:28:00,21.6,8.8,30.13,West,275,0.0,3.0,57,0.00,,,0.00,LWC V2.10 B1813,2013-02-26 20:28:00,
2013-02-26 11:33:00,21.6,8.8,30.13,West,270,0.0,0.0,57,0.00,,,0.00,LWC V2.10 B1813,2013-02-26 20:33:00,
2013-02-26 11:38:00,21.5,7.9,30.13,West,269,0.0,1.0,55,0.00,,,0.00,LWC V2.10 B1813,2013-02-26 20:38:00,
2013-02-26 11:43:00,21.6,8.4,30.13,West,270,2.0,2.0,56,0.00,,,0.00,LWC V2.10 B1813,2013-02-26 20:43:00,
2013-02-26 11:48:00,21.5,7.5,30.13,West,269,0.0,2.0,54,0.00,,,0.00,LWC V2.10 B1813,2013-02-26 20:48:00,
2013-02-26 11:53:00,21.2,8.4,30.12,West,260,1.0,4.0,57,0.00,,,0.00,LWC V2.10 B1813,2013-02-26 20:53:00,
2013-02-26 11:58:00,21.0,7.0,30.12,West,260,0.0,0.0,54,0.00,,,0.00,LWC V2.10 B1813,2013-02-26 20:58:00,
2013-02-26 12:03:00,21.5,7.1,30.12,West,261,0.0,2.0,53,0.00,,,0.00,LWC V2.10 B1813,2013-02-26 21:03:00,
2013-02-26 12:08:00,22.1,7.6,30.12,SW,215,0.0,1.0,53,0.00,,,0.00,LWC V2.10 B1813,2013-02-26 21:08:00,
2013-02-26 12:13:00,22.8,7.8,30.12,SW,215,0.0,0.0,52,0.00,,,0.00,LWC V2.10 B1813,2013-02-26 21:13:00,
2013-02-26 12:18:00,23.3,8.7,30.12,SW,215,0.0,2.0,53,0.00,,,0.00,LWC V2.10 B1813,2013-02-26 21:18:00,
2013-02-26 12:23:00,23.8,8.3,30.12,SSW,205,1.0,2.0,51,0.00,,,0.00,LWC V2.10 B1813,2013-02-26 21:23:00,
2013-02-26 12:28:00,24.2,7.8,30.12,SSE,163,0.0,2.0,49,0.00,,,0.00,LWC V2.10 B1813,2013-02-26 21:28:00,
2013-02-26 12:33:00,24.4,8.9,30.12,SSW,200,2.0,6.0,51,0.00,,,0.00,LWC V2.10 B1813,2013-02-26 21:33:00,
2013-02-26 12:38:00,24.2,9.1,30.12,SSW,209,4.0,7.0,52,0.00,,,0.00,LWC V2.10 B1813,2013-02-26 21:38:00,
2013-02-26 12:43:00,23.8,8.3,30.12,SSW,203,5.0,5.0,51,0.00,,,0.00,LWC V2.10 B1813,2013-02-26 21:43:00,
2013-02-26 12:48:00,23.6,8.2,30.12,SW,229,4.0,6.0,51,0.00,,,0.00,LWC V2.10 B1813,2013-02-26 21:48:00,
2013-02-26 12:53:00,23.6,9.0,30.12,SW,220,0.0,5.0,53,0.00,,,0.00,LWC V2.10 B1813,2013-02-26 21:53:00,
2013-02-26 12:58:00,23.7,8.7,30.11,SW,223,0.0,3.0,52,0.00,,,0.00,LWC V2.10 B1813,2013-02-26 21:58:00,
2013-02-26 13:03:00,23.7,8.7,30.11,SW,229,2.0,6.0,52,0.00,,,0.00,LWC V2.10 B1813,2013-02-26 22:03:00,
2013-02-26 13:08:00,23.3,7.4,30.11,SW,234,1.0,2.0,50,0.00,,,0.00,LWC V2.10 B1813,2013-02-26 22:08:00,
2013-02-26 13:13:00,22.9,8.4,30.11,WSW,240,2.0,2.0,53,0.00,,,0.00,LWC V2.10 B1813,2013-02-26 22:13:00,
2013-02-26 13:18:00,22.7,9.0,30.11,WSW,240,0.0,1.0,55,0.00,,,0.00,LWC V2.10 B1813,2013-02-26 22:18:00,
2013-02-26 13:23:00,22.8,9.5,30.11,WSW,245,0.0,3.0,56,0.00,,,0.00,LWC V2.10 B1813,2013-02-26 22:23:00,
2013-02-26 13:28:00,23.0,9.7,30.10,WSW,246,1.0,3.0,56,0.00,,,0.00,LWC V2.10 B1813,2013-02-26 22:28:00,
2013-02-26 13:33:00,23.2,9.9,30.10,WSW,246,3.0,3.0,56,0.00,,,0.00,LWC V2.10 B1813,2013-02-26 22:33:00,
2013-02-26 13:38:00,23.2,9.5,30.10,WSW,245,1.0,2.0,55,0.00,,,0.00,LWC V2.10 B1813,2013-02-26 22:38:00,
2013-02-26 13:43:00,23.3,9.1,30.09,WSW,248,1.0,3.0,54,0.00,,,0.00,LWC V2.10 B1813,2013-02-26 22:43:00,
2013-02-26 13:48:00,23.3,8.3,30.09,West,265,0.0,0.0,52,0.00,,,0.00,LWC V2.10 B1813,2013-02-26 22:48:00,
2013-02-26 13:53:00,23.7,8.7,30.09,West,265,0.0,0.0,52,0.00,,,0.00,LWC V2.10 B1813,2013-02-26 22:53:00,
2013-02-26 13:58:00,23.6,8.2,30.09,ESE,110,0.0,0.0,51,0.00,,,0.00,LWC V2.10 B1813,2013-02-26 22:58:00,
2013-02-26 14:03:00,23.7,8.7,30.09,ESE,110,2.0,2.0,52,0.00,,,0.00,LWC V2.10 B1813,2013-02-26 23:03:00,
2013-02-26 14:08:00,24.3,8.4,30.09,East,100,0.0,3.0,50,0.00,,,0.00,LWC V2.10 B1813,2013-02-26 23:08:00,
2013-02-26 14:13:00,25.2,8.3,30.09,East,86,2.0,5.0,48,0.00,,,0.00,LWC V2.10 B1813,2013-02-26 23:13:00,
2013-02-26 14:18:00,26.0,8.6,30.08,East,86,2.0,2.0,47,0.00,,,0.00,LWC V2.10 B1813,2013-02-26 23:18:00,
2013-02-26 14:23:00,26.3,8.8,30.08,East,94,2.0,2.0,47,0.00,,,0.00,LWC V2.10 B1813,2013-02-26 23:23:00,
2013-02-26 14:28:00,26.5,9.0,30.08,East,88,3.0,5.0,47,0.00,,,0.00,LWC V2.10 B1813,2013-02-26 23:28:00,
2013-02-26 14:33:00,26.6,9.1,30.08,ENE,75,5.0,7.0,47,0.00,,,0.00,LWC V2.10 B1813,2013-02-26 23:33:00,
2013-02-26 14:38:00,26.3,10.2,30.07,NE,51,2.0,5.0,50,0.00,,,0.00,LWC V2.10 B1813,2013-02-26 23:38:00,
2013-02-26 14:43:00,26.2,9.2,30.07,East,89,5.0,7.0,48,0.00,,,0.00,LWC V2.10 B1813,2013-02-26 23:43:00,
2013-02-26 14:48:00,26.2,9.7,30.07,ENE,76,4.0,7.0,49,0.00,,,0.00,LWC V2.10 B1813,2013-02-26 23:48:00,
2013-02-26 14:53:00,26.3,9.8,30.06,NE,51,3.0,6.0,49,0.00,,,0.00,LWC V2.10 B1813,2013-02-26 23:53:00,
2013-02-26 14:58:00,26.5,10.0,30.06,ENE,72,4.0,6.0,49,0.00,,,0.00,LWC V2.10 B1813,2013-02-26 23:58:00,
2013-02-26 15:03:00,26.6,10.0,30.06,ENE,63,2.0,4.0,49,0.00,,,0.00,LWC V2.10 B1813,2013-02-27 00:03:00,
2013-02-26 15:08:00,26.7,11.0,30.05,NE,42,9.0,9.0,51,0.00,,,0.00,LWC V2.10 B1813,2013-02-27 00:08:00,
2013-02-26 15:13:00,26.6,10.5,30.05,ENE,76,4.0,8.0,50,0.00,,,0.00,LWC V2.10 B1813,2013-02-27 00:13:00,
2013-02-26 15:18:00,26.6,10.9,30.05,ENE,63,3.0,7.0,51,0.00,,,0.00,LWC V2.10 B1813,2013-02-27 00:18:00,
2013-02-26 15:23:00,26.7,11.0,30.05,ENE,69,3.0,7.0,51,0.00,,,0.00,LWC V2.10 B1813,2013-02-27 00:23:00,
2013-02-26 15:28:00,26.8,10.7,30.05,ENE,65,0.0,3.0,50,0.00,,,0.00,LWC V2.10 B1813,2013-02-27 00:28:00,
2013-02-26 15:33:00,26.8,10.2,30.05,East,81,6.0,8.0,49,0.00,,,0.00,LWC V2.10 B1813,2013-02-27 00:33:00,
2013-02-26 15:38:00,27.0,10.0,30.05,East,86,10.0,10.0,48,0.00,,,0.00,LWC V2.10 B1813,2013-02-27 00:38:00,
2013-02-26 15:43:00,27.1,10.5,30.05,East,92,5.0,6.0,49,0.00,,,0.00,LWC V2.10 B1813,2013-02-27 00:43:00,
2013-02-26 15:48:00,27.1,10.5,30.04,ESE,103,4.0,7.0,49,0.00,,,0.00,LWC V2.10 B1813,2013-02-27 00:48:00,
2013-02-26 15:53:00,26.9,10.8,30.04,East,101,3.0,6.0,50,0.00,,,0.00,LWC V2.10 B1813,2013-02-27 00:53:00,
2013-02-26 15:58:00,26.5,10.4,30.04,ENE,63,3.0,7.0,50,0.00,,,0.00,LWC V2.10 B1813,2013-02-27 00:58:00,
2013-02-26 16:03:00,26.3,9.8,30.04,East,91,2.0,7.0,49,0.00,,,0.00,LWC V2.10 B1813,2013-02-27 01:03:00,
2013-02-26 16:08:00,26.3,9.3,30.04,ENE,74,3.0,7.0,48,0.00,,,0.00,LWC V2.10 B1813,2013-02-27 01:08:00,
2013-02-26 16:13:00,26.4,9.4,30.03,East,87,6.0,7.0,48,0.00,,,0.00,LWC V2.10 B1813,2013-02-27 01:13:00,
2013-02-26 16:18:00,26.5,9.5,30.03,ENE,65,5.0,10.0,48,0.00,,,0.00,LWC V2.10 B1813,2013-02-27 01:18:00,
2013-02-26 16:23:00,26.5,9.0,30.03,NE,56,5.0,8.0,47,0.00,,,0.00,LWC V2.10 B1813,2013-02-27 01:23:00,
2013-02-26 16:28:00,26.7,9.2,30.03,ENE,69,5.0,8.0,47,0.00,,,0.00,LWC V2.10 B1813,2013-02-27 01:28:00,
2013-02-26 16:33:00,26.9,9.4,30.03,East,86,5.0,8.0,47,0.00,,,0.00,LWC V2.10 B1813,2013-02-27 01:33:00,
2013-02-26 16:38:00,26.8,9.3,30.03,East,84,6.0,7.0,47,0.00,,,0.00,LWC V2.10 B1813,2013-02-27 01:38:00,
2013-02-26 16:43:00,26.6,9.6,30.03,ESE,115,2.0,6.0,48,0.00,,,0.00,LWC V2.10 B1813,2013-02-27 01:43:00,
2013-02-26 16:48:00,26.3,9.8,30.02,East,86,1.0,3.0,49,0.00,,,0.00,LWC V2.10 B1813,2013-02-27 01:48:00,
2013-02-26 16:53:00,26.1,9.1,30.02,ENE,75,3.0,8.0,48,0.00,,,0.00,LWC V2.10 B1813,2013-02-27 01:53:00,
2013-02-26 16:58:00,25.9,9.8,30.02,ESE,106,4.0,8.0,50,0.00,,,0.00,LWC V2.10 B1813,2013-02-27 01:58:00,
2013-02-26 17:03:00,25.7,9.2,30.02,ENE,72,4.0,5.0,49,0.00,,,0.00,LWC V2.10 B1813,2013-02-27 02:03:00,
2013-02-26 17:08:00,25.6,9.1,30.02,ENE,64,5.0,7.0,49,0.00,,,0.00,LWC V2.10 B1813,2013-02-27 02:08:00,
2013-02-26 17:12:00,25.7,9.2,30.02,East,82,2.0,7.0,49,0.00,,,0.00,LWC V2.10 B1813,2013-02-27 02:12:00,
2013-02-26 17:17:00,25.6,9.1,30.02,East,79,1.0,6.0,49,0.00,,,0.00,LWC V2.10 B1813,2013-02-27 02:17:00,
2013-02-26 17:22:00,25.3,9.3,30.02,ENE,72,3.0,5.0,50,0.00,,,0.00,LWC V2.10 B1813,2013-02-27 02:22:00,
2013-02-26 17:27:00,24.9,8.9,30.02,ENE,66,3.0,5.0,50,0.00,,,0.00,LWC V2.10 B1813,2013-02-27 02:27:00,
2013-02-26 17:32:00,24.7,9.2,30.02,ENE,69,4.0,7.0,51,0.00,,,0.00,LWC V2.10 B1813,2013-02-27 02:32:00,
2013-02-26 17:37:00,24.6,8.6,30.02,ENE,69,5.0,7.0,50,0.00,,,0.00,LWC V2.10 B1813,2013-02-27 02:37:00,
2013-02-26 17:42:00,24.5,9.0,30.02,ENE,78,3.0,8.0,51,0.00,,,0.00,LWC V2.10 B1813,2013-02-27 02:42:00,
2013-02-26 17:47:00,24.6,9.1,30.02,NE,52,5.0,8.0,51,0.00,,,0.00,LWC V2.10 B1813,2013-02-27 02:47:00,
2013-02-26 17:52:00,24.7,9.6,30.02,NE,53,6.0,8.0,52,0.00,,,0.00,LWC V2.10 B1813,2013-02-27 02:52:00,
2013-02-26 17:57:00,24.4,8.9,30.02,ESE,112,2.0,6.0,51,0.00,,,0.00,LWC V2.10 B1813,2013-02-27 02:57:00,
2013-02-26 18:02:00,24.2,9.1,30.02,East,97,2.0,5.0,52,0.00,,,0.00,LWC V2.10 B1813,2013-02-27 03:02:00,
2013-02-26 18:07:00,23.8,10.0,30.02,ESE,109,2.0,3.0,55,0.00,,,0.00,LWC V2.10 B1813,2013-02-27 03:07:00,
2013-02-26 18:12:00,23.2,9.5,30.02,East,80,3.0,3.0,55,0.00,,,0.00,LWC V2.10 B1813,2013-02-27 03:12:00,
2013-02-26 18:17:00,22.8,8.7,30.02,ENE,74,1.0,3.0,54,0.00,,,0.00,LWC V2.10 B1813,2013-02-27 03:17:00,
2013-02-26 18:22:00,22.5,8.8,30.01,ENE,59,4.0,4.0,55,0.00,,,0.00,LWC V2.10 B1813,2013-02-27 03:22:00,
2013-02-26 18:27:00,22.4,9.1,30.01,NNE,19,3.0,6.0,56,0.00,,,0.00,LWC V2.10 B1813,2013-02-27 03:27:00,
2013-02-26 18:32:00,22.2,8.5,30.02,ENE,61,5.0,7.0,55,0.00,,,0.00,LWC V2.10 B1813,2013-02-27 03:32:00,
2013-02-26 18:37:00,22.2,8.1,30.01,ENE,75,4.0,6.0,54,0.00,,,0.00,LWC V2.10 B1813,2013-02-27 03:37:00,
2013-02-26 18:42:00,22.3,8.2,30.01,East,95,3.0,7.0,54,0.00,,,0.00,LWC V2.10 B1813,2013-02-27 03:42:00,
2013-02-26 18:47:00,22.4,8.3,30.01,NE,44,5.0,7.0,54,0.00,,,0.00,LWC V2.10 B1813,2013-02-27 03:47:00,
2013-02-26 18:52:00,22.4,8.3,30.01,East,88,3.0,7.0,54,0.00,,,0.00,LWC V2.10 B1813,2013-02-27 03:52:00,
2013-02-26 18:57:00,22.5,8.4,30.01,ENE,67,4.0,6.0,54,0.00,,,0.00,LWC V2.10 B1813,2013-02-27 03:57:00,
2013-02-26 19:02:00,22.4,8.3,30.01,East,94,3.0,3.0,54,0.00,,,0.00,LWC V2.10 B1813,2013-02-27 04:02:00,
2013-02-26 19:07:00,22.1,8.4,30.01,NE,50,3.0,6.0,55,0.00,,,0.00,LWC V2.10 B1813,2013-02-27 04:07:00,
2013-02-26 19:12:00,21.9,8.2,30.01,NE,49,4.0,4.0,55,0.00,,,0.00,LWC V2.10 B1813,2013-02-27 04:12:00,
2013-02-26 19:17:00,21.8,8.1,30.01,ENE,75,5.0,8.0,55,0.00,,,0.00,LWC V2.10 B1813,2013-02-27 04:17:00,
2013-02-26 19:22:00,22.0,8.3,30.01,ENE,63,7.0,10.0,55,0.00,,,0.00,LWC V2.10 B1813,2013-02-27 04:22:00,
2013-02-26 19:27:00,22.0,8.7,30.00,NE,43,6.0,9.0,56,0.00,,,0.00,LWC V2.10 B1813,2013-02-27 04:27:00,
2013-02-26 19:32:00,21.9,8.2,30.00,NE,53,3.0,11.0,55,0.00,,,0.00,LWC V2.10 B1813,2013-02-27 04:32:00,
2013-02-26 19:37:00,21.9,8.2,30.00,NE,52,3.0,8.0,55,0.00,,,0.00,LWC V2.10 B1813,2013-02-27 04:37:00,
2013-02-26 19:42:00,21.9,8.6,30.00,NE,48,6.0,9.0,56,0.00,,,0.00,LWC V2.10 B1813,2013-02-27 04:42:00,
2013-02-26 19:47:00,22.0,8.7,30.00,ENE,58,7.0,9.0,56,0.00,,,0.00,LWC V2.10 B1813,2013-02-27 04:47:00,
2013-02-26 19:52:00,22.1,8.8,30.01,ENE,61,8.0,9.0,56,0.00,,,0.00,LWC V2.10 B1813,2013-02-27 04:52:00,
2013-02-26 19:57:00,22.1,8.8,30.00,NE,44,5.0,5.0,56,0.00,,,0.00,LWC V2.10 B1813,2013-02-27 04:57:00,
2013-02-26 20:00:00,22.0,8.3,30.00,East,82,6.0,9.0,55,0.00,,,0.00,LWC V2.10 B1813,2013-02-27 05:00:00,
2013-02-26 20:05:00,21.5,8.3,30.00,NE,54,1.0,7.0,56,0.00,,,0.00,LWC V2.10 B1813,2013-02-27 05:05:00,
2013-02-26 20:10:00,21.0,8.2,30.00,ENE,63,7.0,9.0,57,0.00,,,0.00,LWC V2.10 B1813,2013-02-27 05:10:00,
2013-02-26 20:15:00,20.5,8.1,30.00,ENE,59,4.0,7.0,58,0.00,,,0.00,LWC V2.10 B1813,2013-02-27 05:15:00,
2013-02-26 20:20:00,20.2,7.8,30.00,NE,43,3.0,7.0,58,0.00,,,0.00,LWC V2.10 B1813,2013-02-27 05:20:00,
2013-02-26 20:25:00,19.9,7.9,30.00,ENE,64,5.0,8.0,59,0.00,,,0.00,LWC V2.10 B1813,2013-02-27 05:25:00,
2013-02-26 20:30:00,19.8,8.2,30.00,NE,55,1.0,8.0,60,0.00,,,0.00,LWC V2.10 B1813,2013-02-27 05:30:00,
2013-02-26 20:35:00,19.7,8.1,29.99,ENE,67,4.0,7.0,60,0.00,,,0.00,LWC V2.10 B1813,2013-02-27 05:35:00,
2013-02-26 20:40:00,19.7,8.1,29.99,ENE,67,4.0,8.0,60,0.00,,,0.00,LWC V2.10 B1813,2013-02-27 05:40:00,
2013-02-26 20:45:00,19.7,8.1,29.99,ENE,78,2.0,8.0,60,0.00,,,0.00,LWC V2.10 B1813,2013-02-27 05:45:00,
2013-02-26 20:50:00,19.7,8.1,29.99,ENE,61,5.0,8.0,60,0.00,,,0.00,LWC V2.10 B1813,2013-02-27 05:50:00,
2013-02-26 20:55:00,19.7,8.1,29.99,NE,38,5.0,8.0,60,0.00,,,0.00,LWC V2.10 B1813,2013-02-27 05:55:00,
2013-02-26 21:00:00,19.7,8.1,29.99,ENE,63,5.0,8.0,60,0.00,,,0.00,LWC V2.10 B1813,2013-02-27 06:00:00,
2013-02-26 21:05:00,19.7,8.1,29.99,ENE,69,3.0,7.0,60,0.00,,,0.00,LWC V2.10 B1813,2013-02-27 06:05:00,
2013-02-26 21:10:00,19.6,8.0,29.99,NE,49,6.0,10.0,60,0.00,,,0.00,LWC V2.10 B1813,2013-02-27 06:10:00,
2013-02-26 21:15:00,19.7,8.5,29.99,ENE,64,4.0,8.0,61,0.00,,,0.00,LWC V2.10 B1813,2013-02-27 06:15:00,
2013-02-26 21:20:00,20.0,8.4,29.99,ENE,60,5.0,7.0,60,0.00,,,0.00,LWC V2.10 B1813,2013-02-27 06:20:00,
2013-02-26 21:25:00,20.4,8.8,29.99,NE,49,5.0,9.0,60,0.00,,,0.00,LWC V2.10 B1813,2013-02-27 06:25:00,
2013-02-26 21:30:00,20.9,8.9,29.99,NE,54,6.0,11.0,59,0.00,,,0.00,LWC V2.10 B1813,2013-02-27 06:30:00,
2013-02-26 21:35:00,21.3,9.2,29.99,ENE,61,3.0,11.0,59,0.00,,,0.00,LWC V2.10 B1813,2013-02-27 06:35:00,
2013-02-26 21:40:00,21.7,9.2,29.99,ENE,75,7.0,9.0,58,0.00,,,0.00,LWC V2.10 B1813,2013-02-27 06:40:00,
2013-02-26 21:45:00,22.0,9.5,29.99,ENE,71,10.0,10.0,58,0.00,,,0.00,LWC V2.10 B1813,2013-02-27 06:45:00,
2013-02-26 21:49:00,22.1,9.2,29.99,NE,48,6.0,9.0,57,0.00,,,0.00,LWC V2.10 B1813,2013-02-27 06:49:00,
2013-02-26 21:54:00,22.0,9.1,29.98,East,80,3.0,8.0,57,0.00,,,0.00,LWC V2.10 B1813,2013-02-27 06:54:00,
2013-02-26 21:59:00,21.9,9.0,29.98,ENE,57,9.0,9.0,57,0.00,,,0.00,LWC V2.10 B1813,2013-02-27 06:59:00,
2013-02-26 22:02:00,21.8,8.9,29.98,ENE,57,8.0,10.0,57,0.00,,,0.00,LWC V2.10 B1813,2013-02-27 07:02:00,
2013-02-26 22:06:00,21.8,8.9,29.98,NE,52,3.0,11.0,57,0.00,,,0.00,LWC V2.10 B1813,2013-02-27 07:06:00,
2013-02-26 22:11:00,22.0,9.1,29.98,NE,41,3.0,10.0,57,0.00,,,0.00,LWC V2.10 B1813,2013-02-27 07:11:00,
2013-02-26 22:16:00,22.0,9.1,29.98,NE,48,4.0,13.0,57,0.00,,,0.00,LWC V2.10 B1813,2013-02-27 07:16:00,
2013-02-26 22:21:00,22.1,9.2,29.98,ENE,67,4.0,9.0,57,0.00,,,0.00,LWC V2.10 B1813,2013-02-27 07:21:00,
2013-02-26 22:26:00,22.1,9.2,29.98,ENE,64,4.0,11.0,57,0.00,,,0.00,LWC V2.10 B1813,2013-02-27 07:26:00,
2013-02-26 22:31:00,22.5,9.6,29.98,ENE,65,5.0,9.0,57,0.00,,,0.00,LWC V2.10 B1813,2013-02-27 07:31:00,
2013-02-26 22:36:00,22.6,9.7,29.98,ENE,57,8.0,9.0,57,0.00,,,0.00,LWC V2.10 B1813,2013-02-27 07:36:00,
2013-02-26 22:41:00,22.7,9.8,29.98,NE,54,6.0,8.0,57,0.00,,,0.00,LWC V2.10 B1813,2013-02-27 07:41:00,
2013-02-26 22:46:00,22.8,9.5,29.98,NE,48,7.0,10.0,56,0.00,,,0.00,LWC V2.10 B1813,2013-02-27 07:46:00,
2013-02-26 22:51:00,22.9,9.6,29.98,NE,41,5.0,10.0,56,0.00,,,0.00,LWC V2.10 B1813,2013-02-27 07:51:00,
2013-02-26 22:56:00,22.9,9.6,29.98,NE,44,6.0,9.0,56,0.00,,,0.00,LWC V2.10 B1813,2013-02-27 07:56:00,
2013-02-26 23:01:00,22.8,9.5,29.98,NE,45,7.0,7.0,56,0.00,,,0.00,LWC V2.10 B1813,2013-02-27 08:01:00,
2013-02-26 23:06:00,22.7,9.8,29.98,NNE,30,4.0,11.0,57,0.00,,,0.00,LWC V2.10 B1813,2013-02-27 08:06:00,
2013-02-26 23:11:00,22.6,9.7,29.98,NE,53,5.0,7.0,57,0.00,,,0.00,LWC V2.10 B1813,2013-02-27 08:11:00,
2013-02-26 23:16:00,22.5,9.6,29.98,ENE,59,5.0,10.0,57,0.00,,,0.00,LWC V2.10 B1813,2013-02-27 08:16:00,
2013-02-26 23:22:00,22.5,9.6,29.98,ENE,67,9.0,9.0,57,0.00,,,0.00,LWC V2.10 B1813,2013-02-27 08:22:00,
2013-02-26 23:27:00,22.5,9.6,29.97,NE,34,6.0,9.0,57,0.00,,,0.00,LWC V2.10 B1813,2013-02-27 08:27:00,
2013-02-26 23:32:00,22.5,9.6,29.98,NE,51,6.0,11.0,57,0.00,,,0.00,LWC V2.10 B1813,2013-02-27 08:32:00,
2013-02-26 23:37:00,22.5,9.6,29.97,NE,44,4.0,8.0,57,0.00,,,0.00,LWC V2.10 B1813,2013-02-27 08:37:00,
2013-02-26 23:42:00,22.4,9.5,29.97,NE,36,6.0,10.0,57,0.00,,,0.00,LWC V2.10 B1813,2013-02-27 08:42:00,
2013-02-26 23:47:00,22.4,9.5,29.97,NE,52,7.0,9.0,57,0.00,,,0.00,LWC V2.10 B1813,2013-02-27 08:47:00,
2013-02-26 23:52:00,22.2,9.3,29.97,NE,40,6.0,10.0,57,0.00,,,0.00,LWC V2.10 B1813,2013-02-27 08:52:00,
2013-02-26 23:57:00,22.2,9.3,29.97,NE,53,4.0,9.0,57,0.00,,,0.00,LWC V2.10 B1813,2013-02-27 08:57:00,